DW2973 Weather Reports


time (UTC)temp
C
wind
direction
speed
KPH
gust
KPH
rain 1hr
cm
rain 24hr
cm
rain mn
cm
humidity
%
barometer
mb
20260503210038 11 227 0.0 0.0 0.00 0.00 0.28 90 1006.3
20260503204552 11 227 0.0 0.0 0.00 0.00 0.28 89 1006.4
20260503203036 11 227 0.0 0.0 0.00 0.00 0.23 88 1006.8
20260503201531 12 227 0.0 0.0 0.00 0.00 0.18 87 1007.4
20260503200032 12 228 0.0 0.0 0.00 0.00 0.00 85 1007.8
20260503194531 12 228 0.0 0.0 0.00 0.00 0.00 85 1007.5
20260503193031 12 228 0.0 0.0 0.00 0.00 0.00 85 1007.4
20260503191530 12 228 0.0 0.0 0.00 0.00 0.00 84 1007.2
20260503190030 12 228 0.0 0.0 0.00 0.00 0.00 84 1007.4
20260503184529 12 228 0.0 0.0 0.00 0.00 0.00 83 1007.4
20260503183037 12 227 0.0 0.0 0.00 0.00 0.00 82 1007.4
20260503181527 13 227 0.0 0.0 0.00 0.00 0.00 82 1007.5
20260503180031 13 228 0.0 0.0 0.00 0.00 0.00 80 1007.6
20260503174533 13 228 0.0 0.0 0.00 0.00 0.00 78 1007.7
20260503173025 13 290 0.0 0.0 0.00 0.00 0.00 78 1007.5
20260503171528 13 259 0.0 0.0 0.00 0.00 0.00 77 1007.8
20260503100106 14 248 0.0 0.0 0.00 0.00 0.00 79 1010.8
20260503090105 14 265 0.0 0.0 0.00 0.00 0.00 80 1010.8
20260503081559 13 337 0.0 0.0 0.00 0.00 0.00 81 1010.7
20260503071608 13 225 0.0 0.0 0.00 0.00 0.00 82 1010.2
20260503070108 13 225 0.0 0.0 0.00 0.00 0.00 82 1010.3
20260503054555 11 246 0.0 0.0 0.00 0.00 0.00 88 1010.1
20260503053047 11 250 0.0 0.0 0.00 0.00 0.00 88 1010.2
20260503051550 11 306 0.0 0.0 0.00 0.00 0.00 88 1010.4
20260503050046 11 278 0.0 0.0 0.00 0.00 0.00 88 1010.3
20260503044544 11 246 0.0 0.0 0.00 0.00 0.00 88 1010.5
20260503043046 11 261 0.0 0.0 0.00 0.00 0.00 88 1010.4
20260503041544 11 252 0.0 0.0 0.00 0.00 0.00 88 1010.3
20260503040044 11 279 1.6 0.0 0.00 0.00 0.00 88 1010.3
20260503034546 11 231 1.6 0.0 0.00 0.00 0.00 88 1010.2
20260503033053 11 227 0.0 0.0 0.00 0.00 0.00 87 1010.3
20260503031540 10 229 0.0 0.0 0.00 0.00 0.00 86 1010.1
20260503030040 10 229 0.0 0.0 0.00 0.00 0.00 85 1010.0
20260503024544 10 229 0.0 0.0 0.00 0.00 0.00 84 1010.1
20260503023035 11 229 0.0 0.0 0.00 0.00 0.00 83 1010.1
20260503021535 11 229 0.0 0.0 0.00 0.00 0.00 83 1010.2
20260503020033 11 229 1.6 0.0 0.00 0.00 0.00 82 1010.2
20260503014531 11 229 0.0 0.0 0.00 0.00 0.00 82 1010.2
20260503013035 11 229 0.0 0.0 0.00 0.00 0.00 81 1010.1
20260503011528 11 229 0.0 0.0 0.00 0.00 0.00 79 1010.1
20260503010030 11 229 0.0 0.0 0.00 0.00 0.00 78 1010.3
20260503004523 12 229 0.0 0.0 0.00 0.00 0.00 77 1010.3
20260503003027 12 229 0.0 0.0 0.00 0.00 0.00 75 1010.4
20260503001518 12 229 0.0 0.0 0.00 0.00 0.00 73 1010.5
20260503000019 12 229 0.0 0.0 0.00 0.00 0.00 72 1010.7
20260502234519 12 229 0.0 0.0 0.00 0.00 0.00 71 1010.7
20260502233010 13 229 0.0 0.0 0.00 0.00 0.00 70 1010.8
20260502231508 13 229 0.0 0.0 0.00 0.00 0.00 68 1011.0
20260502230009 13 229 0.0 0.0 0.00 0.00 0.00 68 1011.3
20260502224505 13 229 0.0 0.0 0.00 0.00 0.00 67 1011.3
20260502223004 14 229 0.0 0.0 0.00 0.00 0.00 66 1011.2
20260502221559 15 229 0.0 0.0 0.00 0.00 0.00 65 1011.0
20260502214555 15 229 0.0 0.0 0.00 0.00 0.00 63 1011.1
20260502213055 16 229 0.0 0.0 0.00 0.00 0.00 59 1011.2
20260502211554 16 229 0.0 0.0 0.00 0.00 0.00 60 1011.3